{"data":{"norad_id":39358,"intl_designator":"2013-057A","name":"SHIJIAN-16 (SJ-16)","alt_names":[],"object_type":"PAYLOAD","status":"ACTIVE","operator":null,"country":"PRC","launch_date":"2013-10-25","launch_site_code":"JSC","launch_vehicle":null,"mission":null,"orbit_class":"UNKNOWN","rcs_meters":8.2723,"size_class":null,"mass_kg":null,"dimensions":null,"purposes":[],"wikipedia_slug":null,"has_3d_model":false,"image_url":null,"decayed_at":null,"tle_current":{"epoch":"2026-05-25T04:21:34.458912Z","epoch_age_seconds":58648,"freshness":"FRESH","line1":"1 39358U 13057A   26145.18164883  .00000640  00000+0  65063-4 0  9994","line2":"2 39358  74.9736  40.2536 0016923 283.7164  76.2140 14.92541803682911","mean_motion":14.92541803,"eccentricity":0.0016923,"inclination_deg":74.9736,"raan_deg":40.2536,"arg_perigee_deg":283.7164,"mean_anomaly_deg":76.214,"bstar":6.5063e-5,"rev_number":68291,"period_min":96.479709788068,"perigee_km":578.22103364745,"apogee_km":601.80543493043,"semimajor_km":6968.1502342889,"source":"CELESTRAK","updated_at":"2026-05-25T13:37:55.397725Z"}}}